Location: Bermeries
(50.2863°N, 3.7551°E)
Time: 12:38:50
(UTC+00:00)

Cosmos 1954 Rocket - Pass Details

Date: 23 May 2024
Orbit: 750 x 779 km, 74.0° (Epoch: 16 June)

Event Time Altitude Azimuth Distance (km) Brightness Sun altitude
Exits shadow 00:48:43 31° 191° (S) 1,343 4.7 -17.5°
Maximum altitude 00:51:19 76° 111° (ESE) 807 4.0 -17.4°
Drops below altitude 10° 00:56:38 10° 27° (NNE) 2,340 7.8 -17.2°
Sets 00:59:01 0° 26° (NNE) 3,270 9.0 -17.0°
